Location: Rancho Del Sol Observatory
(38.7214°N, 120.6350°W)
Time: 05:54:56
(UTC-08:00)

SR - All Passes

Search period start: 28 January 2020 00:00
Search period end: 07 February 2020 00:00
Orbit: 574 x 882 km, 66.7° (Epoch: 27 January)

Date Brightness Start Highest point End Pass type
(mag) Time Alt. Az. Time Alt. Az. Time Alt. Az.
28 Jan - 05:39:33 10° N 05:44:25 31° NE 05:48:56 10° ESE visible
28 Jan - 07:21:41 10° NW 07:26:30 34° WSW 07:30:56 10° S daylight
28 Jan - 20:07:28 10° SSE 20:12:21 29° ESE 20:17:22 10° NE night (unlit)
28 Jan - 21:48:42 10° SW 21:54:15 44° NW 21:59:56 10° NNE night (unlit)
29 Jan - 04:50:36 10° N 04:54:16 18° NE 04:57:46 10° E visible
29 Jan - 06:31:37 10° NNW 06:37:03 73° WSW 06:41:58 10° SSE visible
29 Jan - 19:20:09 10° SE 19:23:06 14° ESE 19:26:06 10° ENE night (unlit)
29 Jan - 20:58:37 10° SSW 21:04:27 82° WNW 21:10:25 10° NNE night (unlit)
29 Jan - 22:43:58 10° W 22:47:29 16° NW 22:51:01 10° N night (unlit)
30 Jan - 04:03:10 10° NNE 04:03:54 10° NE 04:04:36 10° NE visible
30 Jan - 05:41:58 10° NNW 05:47:21 56° ENE 05:52:14 10° SE visible
30 Jan - 07:25:27 10° WNW 07:28:49 17° WSW 07:32:00 10° SW daylight
30 Jan - 20:09:14 10° S 20:14:50 53° ESE 20:20:36 10° NE visible
30 Jan - 21:52:23 10° WSW 21:57:16 27° NW 22:02:14 10° N night (unlit)
31 Jan - 04:52:39 10° N 04:57:24 29° NE 05:01:49 10° ESE visible
31 Jan - 06:34:41 10° NW 06:39:33 36° WSW 06:44:02 10° S visible
31 Jan - 19:20:38 10° SSE 19:25:25 27° ESE 19:30:20 10° NE visible
31 Jan - 21:01:39 10° SW 21:07:16 47° NW 21:12:59 10° NNE visible
01 Feb - 04:03:46 10° N 04:07:14 17° NE 04:10:33 10° E visible
01 Feb - 05:44:40 10° NNW 05:50:05 78° WSW 05:54:59 10° SSE visible
01 Feb - 18:33:32 10° SE 18:36:11 13° ESE 18:38:53 10° ENE visible
01 Feb - 20:11:39 10° SSW 20:17:29 86° WNW 20:23:28 10° NNE visible
01 Feb - 21:56:47 10° W 22:00:28 17° NW 22:04:10 10° N visible
02 Feb - 04:55:03 10° NNW 05:00:22 52° ENE 05:05:11 10° SE visible
02 Feb - 06:38:21 10° WNW 06:41:53 18° WSW 06:45:13 10° SSW visible
02 Feb - 19:22:19 10° S 19:27:53 50° ESE 19:33:36 10° NE visible
02 Feb - 21:05:17 10° WSW 21:10:16 28° NW 21:15:19 10° N visible
03 Feb - 04:05:46 10° N 04:10:24 28° NE 04:14:42 10° ESE visible
03 Feb - 05:47:41 10° NW 05:52:36 39° WSW 05:57:06 10° S visible
03 Feb - 18:33:48 10° SSE 18:38:30 26° ESE 18:43:17 10° NE visible
03 Feb - 20:14:38 10° SW 20:20:18 49° WNW 20:26:03 10° NNE visible
03 Feb - 22:03:02 10° NW 22:03:51 10° NW 22:04:40 10° NNW visible
04 Feb - 03:16:56 10° N 03:20:13 16° NE 03:23:19 10° E visible
04 Feb - 04:57:42 10° NNW 05:03:06 83° WSW 05:07:59 10° SSE visible
04 Feb - 17:46:58 10° SE 17:49:17 12° ESE 17:51:36 10° ENE visible
04 Feb - 19:24:41 10° SSW 19:30:32 90° ESE 19:36:30 10° NNE visible
04 Feb - 21:09:36 10° W 21:13:27 17° NW 21:17:18 10° N visible
05 Feb - 04:08:07 10° NNW 04:13:22 49° ENE 04:18:08 10° SE visible
05 Feb - 05:51:16 10° WNW 05:54:56 20° WSW 05:58:24 10° SSW visible
05 Feb - 18:35:25 10° S 18:40:57 47° ESE 18:46:37 10° NE visible
05 Feb - 20:18:12 10° WSW 20:23:17 29° NW 20:28:24 10° N visible
06 Feb - 03:18:52 10° N 03:23:23 26° NE 03:27:34 10° ESE visible
06 Feb - 05:00:41 10° NW 05:05:39 41° WSW 05:10:10 10° S visible
06 Feb - 17:46:59 10° SSE 17:51:34 24° ESE 17:56:13 10° NE visible
06 Feb - 19:27:36 10° SW 19:33:20 52° WNW 19:39:07 10° NNE visible
06 Feb - 21:15:24 10° NW 21:16:48 11° NW 21:18:13 10° NNW visible
